Regional Weather Roundup
Issued by NWS Newport/Morehead, NC

Current Version | Previous Version | Text Only | Print | Product List | Glossary On
Versions: 1 2 3 4 5 6 7 8 9 10 11 12 13 14 15 16 17 18 19 20 21 22 23 24 25 26 27 28 29 30 31 32 33 34 35 36 37 38 39 40 41 42 43 44 45 46 47 48 49 50
000
ASUS42 KMHX 030025
RWRMHX
WEATHER ROUNDUP FOR EASTERN NORTH CAROLINA
NATIONAL WEATHER SERVICE NEWPORT/MOREHEAD CITY NC
800 PM EDT SUN AUG 02 2015

NOTE: "FAIR" INDICATES FEW OR NO CLOUDS BELOW 12,000 FEET
WITH NO SIGNIFICANT WEATHER AND/OR OBSTRUCTIONS TO VISIBILITY

NCZ015>017-031-032-045>047-102-103-030100-
NORTH COAST

CITY           SKY/WX    TMP DP  RH WIND       PRES   REMARKS
EDENTON          N/A     81  70  69 CALM      29.91R
ELIZABETH CITY PTCLDY    82  73  74 N8        29.90S
KITTY HAWK     CLEAR     84  73  69 S6        29.89S
MANTEO         CLEAR     83  76  79 SW17      29.91S

$$

NCZ045>047-081-094-103-104-030100-
CENTRAL COAST

CITY           SKY/WX    TMP DP  RH WIND       PRES   REMARKS
FRISCO         CLEAR     82  76  81 SW12G20   29.94R
SWANQUARTER      N/A     82 N/A N/A SW12G21   29.88S

$$

NCZ095-097-098-100-101-030100-
SOUTHERN COAST

CITY           SKY/WX    TMP DP  RH WIND       PRES   REMARKS
BEAUFORT       CLEAR     80  74  81 SW15      29.94F
CEDAR ISLAND     N/A     81 N/A N/A S6G17     29.97S
JACKSONVILLE   CLEAR     80  72  76 S9        29.94S
PINEY ISLAND   CLEAR    N/A N/A N/A SW15G22   29.93S
WILMINGTON     PTCLDY    81  70  69 S6        29.94S


$$

NCZ011>013-027>030-043-044-078>080-089-090>093-098-030100-
COASTAL PLAIN

CITY           SKY/WX    TMP DP  RH WIND       PRES   REMARKS
AHOSKIE        CLEAR     80  65  60 CALM      29.92S
CLINTON        CLEAR     82  72  71 S3        29.93S
ELIZABETHTOWN  CLEAR     82  72  70 S8        29.94R
GOLDSBORO      PTCLDY    85  72  63 S6        29.90R
GREENVILLE     CLEAR     82  72  69 S10G16    29.94R
HAVELOCK       PTCLDY    80  74  81 SW13G18   29.95S
KENANSVILLE    CLEAR     81  71  72 CALM      29.95R
KINSTON        NOT AVBL
NEW BERN       CLEAR     82  73  74 S14G22    29.94S
RICHLANDS      CLEAR     81  70  69 S8        29.94S
ROCKY MOUNT    MOCLDY    89  60  37 N6        29.91S
WASHINGTON     CLEAR     82  72  70 SW7       29.92S
WHITEVILLE     PTCLDY    81  73  75 SE3       29.93S

$$

AMZ130-135-150-152-154-156-158-170-250-252-270-ANZ085-086-088-633-658-670-030100-
MARINE OBSERVATIONS

STATION/POSITION TIME  TEMP    WIND        PRES    WAVE   SWELL
                       AIR SEA DIR/SP/G            HT/PER HT/PER
                 (UTC) (F)     (DEG/KT/KT) (MB)    (FT/S) (FT/S)
CHESAPEAKE LIGHT 0000   81      60/  4/  4 1013.3
64 E VA BEACH    2350   82 82  190/ 12/ 14 1012.5    3/ 8   2/ 8
DUCK             0000   85 77  190/ 14/ 17 1011.8
2 E DUCK         2311      81                N/A     2/12   2/12
OREGON INLET     0000   83 86  200/ 20/ 24 1012.8
13E OREGON INLT  0000      81                N/A     3/ 7   2/11
HATTERAS CG      0000   81 82  230/ 15/ 19 1013.4
DIAMOND BUOY     2350   82 85  220/ 17/ 21 1013.8    4/ 4   2/ 7
CAPE LOOKOUT     0000   80     200/ 13/ 16 1013.9
BEAUFORT LAB     0000   80 84  210/ 11/ 16 1013.3
30 SE NEW RVR IN NOT AVBL
27 SE WRIGHTSVLE 0000   77 83  210/ 12/ 14   N/A
5 SE WRIGHTSVLE  2308   81 84  190/ 14/ 19 1013.7
225 S CAPE HAT   2350   80 81  220/  4/  4 1016.4    5/ 7   5/ 7
41 SE CHARLESTON 2350   78 83  160/ 23/ 29 1012.4    3/ 5   2/11

$$


USA.gov is the U.S. government's official web portal to all federal, state and local government web resources and services.